Showing default

VENUS, 42901

Orbit data source: Space-Track

VENUS, 42901 is an Israeli payload satellite in SSO that was launched on Wed, 02 Aug 2017 UTC via a VEGA launch vehicle from the French Guiana (FRGUI). Payload-class satellites include a variety of spacecraft equipped with specific instruments for various scientific and technological missions. These include communications satellites like Starlink; space stations such as the ISS; scientific satellites like the Hubble; Earth observation satellites from companies like Planet Labs, Umbra, and HawkEye 360; GPS; miniature CubeSats for education and research; and military/defense satellites.

Loading next visibility...
Identifier
42901, 2017-044B
Orbit
SSO
Country
Flag of UnknownUnknown / ISRA
Related business
Manufacturer
IAI
Mission
Non-operational Civil Imaging
Bus & Motor
VENMS, HET-300
Mass
264 kg wet, ~250 kg dry
Launch date (UTC)
2017-08-02 (8 years ago)
Launch vehicle
VEGA
Launch site
French Guiana (FRGUI)
Object type
Payload
Rocket body
Debris
Shape & HBR
Box + 2 Pan, 2.3 m
Radar Cross Section
3.833 m², Large (>1 m²)

Expand to show TLE details & history
Last TLE update: 9 hours ago

TLE from 9 hours ago
0 VENUS
1 42901U 17044B   25308.59446497  .00007426  00000-0  44376-3 0  9994
2 42901  97.3043 350.1040 0005100  70.8319 289.3464 15.11349393446998
Epoch: 2025-11-04T14:16Z
TLE epoch observation values (Epoch: 2025-11-04T14:16:01.773Z)
Latitude
0.00005°
Longitude
92.01736°
Altitude
533.999 km
Speed
7.596 km/s
True Right ascension
23h 20m 24s
True Declination
0° 00' 00"
Sunlit
Object was in full shadow at epoch
Visualization orbit readout
Latitude
Unknown
Longitude
Unknown
Altitude
Unknown
Speed
Unknown
Apparent Right ascension
Unknown
Apparent Declination
Unknown
Sunlit
N/A
Visualization observer readout
Local Sidereal Time
19:18:10
Azimuth
Unknown
Elevation
Unknown
Doppler factor
Unknown
Orbital elements
Apogee altitude
532.58 km
Perigee altitude
525.534 km
Semi-major axis
6,907.194 km
Eccentricity
0.00051
Inclination
97.3043°
RAAN
350.104°
Arg. of periapsis
70.8319°
True anomaly
289.29125°
Mean anomaly
289.3464°
Eccentric anomaly
289.31882°
Mean motion
3.78086 °/min
Orbital period
95.22 mins
BSTAR
0.00044376
Loading maneuver chart data...
Computing Atmospheric mass density...
Loading historical data...
Loading historical data...
Loading historical data...
Loading historical data...
Loading historical data...
Loading historical data...
Loading historical data...
Other satellites on launch #44 in the year 2017 (2017-08-02 UTC)

Documentation

Showing up to 5 results
|